INMARSAT 3-F4

Last updated on Mon May 16 2016 15:39:40 GMT+0000 (Coordinated Universal Time)

1 24819U 97027A 16137.40611400 .00000090 00000-0 00000+0 0 9991 2 24819 5.0711 59.8613 0010346 339.8837 200.5261 0.99497357 69416
UTC large
Height (km)
Speed (km/s)
/
Latitude / Longitude
Inclination (degrees)
Orbital Period (minutes)
Azimuth
Elevation
Range (km)
Doppler Factor

Next 0 passes for location: London (51.5072 / 0.1276)

Sorry there are no passes over London.
INMARSAT 3-F4